TimeEST,TemperatureF,Dew PointF,Humidity,Sea Level PressureIn,VisibilityMPH,Wind Direction,Wind SpeedMPH,Gust SpeedMPH,PrecipitationIn,Events,Conditions,WindDirDegrees,DateUTC
12:54 AM,30.9,21.0,67,30.18,10.0,West,5.8,-,N/A,,Clear,270,2012-12-12 05:54:00
1:54 AM,30.9,21.0,67,30.21,10.0,WNW,4.6,-,N/A,,Clear,300,2012-12-12 06:54:00
2:54 AM,30.0,21.0,69,30.22,10.0,Calm,Calm,-,N/A,,Clear,0,2012-12-12 07:54:00
3:54 AM,28.0,19.9,72,30.24,10.0,Calm,Calm,-,N/A,,Clear,0,2012-12-12 08:54:00
4:54 AM,30.0,21.0,69,30.27,10.0,Calm,Calm,-,N/A,,Clear,0,2012-12-12 09:54:00
5:54 AM,30.0,19.9,66,30.30,10.0,WNW,3.5,-,N/A,,Clear,300,2012-12-12 10:54:00
6:54 AM,28.9,19.9,69,30.33,10.0,Calm,Calm,-,N/A,,Clear,0,2012-12-12 11:54:00
7:54 AM,30.0,21.0,69,30.35,10.0,Calm,Calm,-,N/A,,Clear,0,2012-12-12 12:54:00
8:54 AM,30.0,21.0,69,30.36,10.0,WNW,3.5,-,N/A,,Clear,300,2012-12-12 13:54:00
9:54 AM,32.0,21.0,64,30.38,10.0,Calm,Calm,-,N/A,,Clear,0,2012-12-12 14:54:00
10:54 AM,33.1,21.9,64,30.37,10.0,West,5.8,-,N/A,,Clear,270,2012-12-12 15:54:00
11:54 AM,35.1,21.9,59,30.35,10.0,WSW,4.6,-,N/A,,Clear,240,2012-12-12 16:54:00
12:54 PM,35.1,21.0,57,30.34,10.0,WSW,5.8,-,N/A,,Clear,240,2012-12-12 17:54:00
1:54 PM,37.0,21.0,52,30.35,10.0,SW,6.9,-,N/A,,Clear,230,2012-12-12 18:54:00
2:54 PM,36.0,19.9,52,30.36,10.0,SW,3.5,-,N/A,,Clear,230,2012-12-12 19:54:00
3:54 PM,35.1,21.0,57,30.38,10.0,Calm,Calm,-,N/A,,Clear,0,2012-12-12 20:54:00
4:54 PM,32.0,21.0,64,30.39,10.0,Calm,Calm,-,N/A,,Clear,0,2012-12-12 21:54:00
5:54 PM,30.0,21.9,72,30.40,10.0,Calm,Calm,-,N/A,,Clear,0,2012-12-12 22:54:00
6:54 PM,33.1,21.9,64,30.41,10.0,South,3.5,-,N/A,,Mostly Cloudy,190,2012-12-12 23:54:00
7:54 PM,30.9,21.9,69,30.42,10.0,Calm,Calm,-,N/A,,Clear,0,2012-12-13 00:54:00
8:54 PM,30.0,21.9,72,30.42,10.0,Calm,Calm,-,N/A,,Clear,0,2012-12-13 01:54:00
9:54 PM,30.0,21.9,72,30.44,10.0,Calm,Calm,-,N/A,,Clear,0,2012-12-13 02:54:00
10:54 PM,28.9,21.9,75,30.44,10.0,Calm,Calm,-,N/A,,Clear,0,2012-12-13 03:54:00
11:54 PM,28.0,21.9,78,30.44,10.0,Calm,Calm,-,N/A,,Clear,0,2012-12-13 04:54:00